,,,PA_Meas_PMT16A,,PR_Meas_QMR101_102,,RH_Meas_QMH101,,SR_Meas_QMS101,,TA_Meas_QMH101,,GenWind,,GenWind,
date,time,status,PA,status,PR,status,RH,status,SR,status,TA,status,DirAvg,status,SpdAvg,
2009-02-08, 00:00:04,VALID,1004.07,VALID,0,VALID,90.8905,VALID,0,VALID,25.0858,VALID,20,VALID,0.313672,
2009-02-08, 00:01:04,VALID,1004.05,VALID,0,VALID,90.8905,VALID,0,VALID,25.0877,VALID,20,VALID,0.450781,
2009-02-08, 00:02:04,VALID,1004.04,VALID,0,VALID,90.8905,VALID,0,VALID,25.0663,VALID,358,VALID,0.452344,
2009-02-08, 00:03:04,VALID,1004.01,VALID,0,VALID,90.8218,VALID,0,VALID,25.0877,VALID,18,VALID,0.664063,
2009-02-08, 00:04:04,VALID,1004.01,VALID,0,VALID,90.7684,VALID,0,VALID,25.0663,VALID,8,VALID,0.475,
2009-02-08, 00:05:04,VALID,1003.99,VALID,0,VALID,90.7379,VALID,0,VALID,25.0663,VALID,25,VALID,0.855469,
2009-02-08, 00:06:04,VALID,1004.02,VALID,0,VALID,90.6921,VALID,0,VALID,25.1053,VALID,28,VALID,0.992188,
2009-02-08, 00:07:04,VALID,1003.97,VALID,0,VALID,90.6387,VALID,0,VALID,25.1461,VALID,32,VALID,0.887109,
2009-02-08, 00:08:04,VALID,1003.99,VALID,0,VALID,90.5624,VALID,0,VALID,25.1442,VALID,24,VALID,0.953516,
2009-02-08, 00:09:04,VALID,1004.02,VALID,0,VALID,90.1657,VALID,0,VALID,25.2027,VALID,23,VALID,1.11563,
2009-02-08, 00:10:04,VALID,1003.99,VALID,0,VALID,89.8606,VALID,0,VALID,25.2825,VALID,22,VALID,0.65625,
2009-02-08, 00:11:04,VALID,1003.98,VALID,0,VALID,89.7461,VALID,0,VALID,25.3195,VALID,29,VALID,0.682422,
2009-02-08, 00:12:04,VALID,1003.97,VALID,0,VALID,89.5249,VALID,0,VALID,25.3195,VALID,22,VALID,0.844922,
2009-02-08, 00:13:04,VALID,1003.99,VALID,0,VALID,89.4639,VALID,0,VALID,25.337,VALID,8,VALID,0.862891,
2009-02-08, 00:14:04,VALID,1003.97,VALID,0,VALID,89.3113,VALID,0,VALID,25.3993,VALID,15,VALID,0.842578,
2009-02-08, 00:15:04,VALID,1003.95,VALID,0,VALID,89.2503,VALID,0,VALID,25.3974,VALID,6,VALID,0.6,
2009-02-08, 00:16:04,VALID,1003.95,VALID,0,VALID,89.0824,VALID,0,VALID,25.3974,VALID,354,VALID,0.857422,
2009-02-08, 00:17:04,VALID,1003.93,VALID,0,VALID,88.8002,VALID,0,VALID,25.3974,VALID,18,VALID,0.492578,
2009-02-08, 00:18:04,VALID,1003.93,VALID,0,VALID,88.762,VALID,0,VALID,25.4169,VALID,19,VALID,0.431641,
2009-02-08, 00:19:04,VALID,1003.9,VALID,0,VALID,88.7468,VALID,0,VALID,25.3955,VALID,19,VALID,0.355859,
2009-02-08, 00:20:04,VALID,1003.87,VALID,0,VALID,88.6781,VALID,0,VALID,25.3779,VALID,27,VALID,0.733594,
2009-02-08, 00:21:04,VALID,1003.86,VALID,0,VALID,88.6247,VALID,0,VALID,25.4169,VALID,25,VALID,0.548828,
2009-02-08, 00:22:04,VALID,1003.88,VALID,0,VALID,88.4187,VALID,0,VALID,25.4363,VALID,31,VALID,1.1207,
2009-02-08, 00:23:04,VALID,1003.89,VALID,0,VALID,88.3348,VALID,0,VALID,25.4363,VALID,13,VALID,0.342187,
2009-02-08, 00:24:04,VALID,1003.94,VALID,0,VALID,88.3653,VALID,0,VALID,25.4363,VALID,355,VALID,0.564453,
2009-02-08, 00:25:04,VALID,1003.92,VALID,0,VALID,88.289,VALID,0,VALID,25.4169,VALID,357,VALID,0.65625,
2009-02-08, 00:26:04,VALID,1003.92,VALID,0,VALID,88.1288,VALID,0,VALID,25.4383,VALID,22,VALID,0.36875,
2009-02-08, 00:27:04,VALID,1003.9,VALID,0,VALID,88.1136,VALID,0,VALID,25.4169,VALID,46,VALID,0.842578,
2009-02-08, 00:28:04,VALID,1003.84,VALID,0,VALID,88.0068,VALID,0,VALID,25.4363,VALID,59,VALID,0.379687,
2009-02-08, 00:29:04,VALID,1003.87,VALID,0,VALID,87.7169,VALID,0.100563,VALID,25.4363,VALID,1,VALID,0.581641,
2009-02-08, 00:30:04,VALID,1003.83,VALID,0,VALID,87.6101,VALID,0,VALID,25.4558,VALID,24,VALID,0.587109,
2009-02-08, 00:31:04,VALID,1003.82,VALID,0,VALID,87.4422,VALID,0,VALID,25.4753,VALID,26,VALID,0.537109,
2009-02-08, 00:32:04,VALID,1003.81,VALID,0,VALID,87.5109,VALID,0,VALID,25.4948,VALID,26,VALID,0.436719,
2009-02-08, 00:33:04,VALID,1003.79,VALID,0,VALID,87.3125,VALID,0,VALID,25.4558,VALID,25,VALID,0.519922,
2009-02-08, 00:34:04,VALID,1003.78,VALID,0,VALID,87.3583,VALID,0,VALID,25.4558,VALID,350,VALID,0.524219,
2009-02-08, 00:35:04,VALID,1003.78,VALID,0,VALID,87.2973,VALID,0,VALID,25.4753,VALID,6,VALID,0.408594,
2009-02-08, 00:36:04,VALID,1003.78,VALID,0,VALID,87.1981,VALID,0,VALID,25.4363,VALID,10,VALID,0.566797,
2009-02-08, 00:37:04,VALID,1003.77,VALID,0,VALID,87.3125,VALID,0,VALID,25.4169,VALID,20,VALID,0.4,
2009-02-08, 00:38:04,VALID,1003.76,VALID,0,VALID,87.1752,VALID,0,VALID,25.3974,VALID,8,VALID,1.19023,
2009-02-08, 00:39:04,VALID,1003.77,VALID,0,VALID,87.3354,VALID,0,VALID,25.3974,VALID,45,VALID,0.473047,
2009-02-08, 00:40:04,VALID,1003.76,VALID,0,VALID,87.4193,VALID,0,VALID,25.3195,VALID,32,VALID,0.166016,
2009-02-08, 00:41:04,VALID,1003.76,VALID,0,VALID,87.1371,VALID,0,VALID,25.3779,VALID,356,VALID,0.853125,
2009-02-08, 00:42:04,VALID,1003.75,VALID,0,VALID,86.9235,VALID,0,VALID,25.4169,VALID,343,VALID,0.590234,
2009-02-08, 00:43:04,VALID,1003.78,VALID,0,VALID,86.7327,VALID,0,VALID,25.4169,VALID,343,VALID,0.491016,
2009-02-08, 00:44:04,VALID,1003.78,VALID,0,VALID,86.7175,VALID,0,VALID,25.4363,VALID,343,VALID,0.00117188,
2009-02-08, 00:45:04,VALID,1003.79,VALID,0,VALID,86.8777,VALID,0,VALID,25.4363,VALID,340,VALID,0.283984,
2009-02-08, 00:46:04,VALID,1003.78,VALID,0,VALID,86.9006,VALID,0,VALID,25.4188,VALID,317,VALID,0.114063,
2009-02-08, 00:47:04,VALID,1003.81,VALID,0,VALID,87.015,VALID,0,VALID,25.3974,VALID,317,VALID,0.168359,
2009-02-08, 00:48:04,VALID,1003.82,VALID,0,VALID,87.015,VALID,0,VALID,25.3974,VALID,317,VALID,0.3,
2009-02-08, 00:49:04,VALID,1003.83,VALID,0,VALID,87.2286,VALID,0,VALID,25.3974,VALID,317,VALID,0.227734,
2009-02-08, 00:50:04,VALID,1003.82,VALID,0,VALID,87.3202,VALID,0,VALID,25.3584,VALID,317,VALID,0.00273437,
2009-02-08, 00:51:04,VALID,1003.83,VALID,0,VALID,87.4575,VALID,0,VALID,25.339,VALID,318,VALID,0.225391,
2009-02-08, 00:52:04,VALID,1003.83,VALID,0,VALID,87.6635,VALID,0,VALID,25.3195,VALID,324,VALID,0.375391,
2009-02-08, 00:53:04,VALID,1003.8,VALID,0,VALID,87.7016,VALID,0,VALID,25.2806,VALID,15,VALID,0.846484,
2009-02-08, 00:54:04,VALID,1003.81,VALID,0,VALID,87.7245,VALID,0,VALID,25.3,VALID,7,VALID,0.412109,
2009-02-08, 00:55:04,VALID,1003.78,VALID,0,VALID,87.6253,VALID,0,VALID,25.2786,VALID,6,VALID,0.348437,
2009-02-08, 00:56:04,VALID,1003.78,VALID,0,VALID,87.7398,VALID,0,VALID,25.3195,VALID,6,VALID,0.347656,
2009-02-08, 00:57:04,VALID,1003.79,VALID,0,VALID,87.5338,VALID,0,VALID,25.3,VALID,345,VALID,0.556641,
2009-02-08, 00:58:04,VALID,1003.78,VALID,0,VALID,87.5567,VALID,0,VALID,25.3195,VALID,343,VALID,0.258594,
2009-02-08, 00:59:04,VALID,1003.75,VALID,0,VALID,87.6024,VALID,0,VALID,25.3195,VALID,343,VALID,0.0851562,
2009-02-08, 01:00:04,VALID,1003.75,VALID,0,VALID,87.4727,VALID,0,VALID,25.3195,VALID,333,VALID,0.294922,
2009-02-08, 01:01:04,VALID,1003.73,VALID,0,VALID,87.3507,VALID,0,VALID,25.339,VALID,338,VALID,0.414844,
2009-02-08, 01:02:04,VALID,1003.75,VALID,0,VALID,87.4499,VALID,0,VALID,25.339,VALID,345,VALID,0.0261719,
2009-02-08, 01:03:04,VALID,1003.75,VALID,0,VALID,87.2439,VALID,0,VALID,25.3584,VALID,346,VALID,0.391016,
2009-02-08, 01:04:04,VALID,1003.78,VALID,0,VALID,87.1294,VALID,0,VALID,25.3974,VALID,352,VALID,0.382031,
2009-02-08, 01:05:04,VALID,1003.8,VALID,0,VALID,87.0989,VALID,0,VALID,25.4169,VALID,352,VALID,0.166797,
2009-02-08, 01:06:04,VALID,1003.76,VALID,0,VALID,86.8624,VALID,0,VALID,25.3974,VALID,352,VALID,0,
2009-02-08, 01:07:04,VALID,1003.75,VALID,0,VALID,86.9845,VALID,0,VALID,25.4169,VALID,352,VALID,0.000390625,
2009-02-08, 01:08:04,VALID,1003.75,VALID,0,VALID,87.0074,VALID,0,VALID,25.4169,VALID,352,VALID,0.00273437,
2009-02-08, 01:09:04,VALID,1003.74,VALID,0,VALID,86.9311,VALID,0,VALID,25.4363,VALID,352,VALID,0,
2009-02-08, 01:10:04,VALID,1003.74,VALID,0,VALID,87.0303,VALID,0,VALID,25.4383,VALID,352,VALID,0,
2009-02-08, 01:11:04,VALID,1003.74,VALID,0,VALID,87.1294,VALID,0,VALID,25.4169,VALID,352,VALID,0.00117188,
2009-02-08, 01:12:04,VALID,1003.71,VALID,0,VALID,87.2591,VALID,0,VALID,25.3974,VALID,352,VALID,0.182812,
2009-02-08, 01:13:04,VALID,1003.7,VALID,0,VALID,87.2668,VALID,0,VALID,25.3974,VALID,32,VALID,0.351563,
2009-02-08, 01:14:04,VALID,1003.7,VALID,0,VALID,87.3965,VALID,0,VALID,25.3779,VALID,41,VALID,0.065625,
2009-02-08, 01:15:04,VALID,1003.7,VALID,0,VALID,87.5261,VALID,0,VALID,25.3779,VALID,41,VALID,0.210547,
2009-02-08, 01:16:04,VALID,1003.69,VALID,0,VALID,87.6482,VALID,0,VALID,25.3584,VALID,41,VALID,0,
2009-02-08, 01:17:04,VALID,1003.69,VALID,0,VALID,87.7321,VALID,0,VALID,25.3176,VALID,41,VALID,0,
2009-02-08, 01:18:04,VALID,1003.66,VALID,0,VALID,87.7703,VALID,0,VALID,25.339,VALID,27,VALID,0.382422,
2009-02-08, 01:19:04,VALID,1003.67,VALID,0,VALID,87.7474,VALID,0,VALID,25.3195,VALID,291,VALID,0.272266,
2009-02-08, 01:20:04,VALID,1003.75,VALID,0,VALID,87.9305,VALID,0,VALID,25.3409,VALID,291,VALID,0,
2009-02-08, 01:21:04,VALID,1003.66,VALID,0,VALID,87.9686,VALID,0,VALID,25.3,VALID,291,VALID,0,
2009-02-08, 01:22:04,VALID,1003.63,VALID,0,VALID,88.2051,VALID,0,VALID,25.3,VALID,291,VALID,0,
2009-02-08, 01:23:04,VALID,1003.62,VALID,0,VALID,88.3958,VALID,0,VALID,25.2416,VALID,291,VALID,0.283984,
2009-02-08, 01:24:04,VALID,1003.63,VALID,0,VALID,88.6247,VALID,0,VALID,25.2027,VALID,291,VALID,0.189063,
2009-02-08, 01:25:04,VALID,1003.61,VALID,0,VALID,88.9299,VALID,0,VALID,25.1442,VALID,291,VALID,0,
2009-02-08, 01:26:04,VALID,1003.57,VALID,0,VALID,89.0519,VALID,0,VALID,25.1248,VALID,291,VALID,0,
2009-02-08, 01:27:04,VALID,1003.56,VALID,0,VALID,89.1358,VALID,0,VALID,25.0858,VALID,291,VALID,0,
2009-02-08, 01:28:04,VALID,1003.56,VALID,0,VALID,89.3189,VALID,0,VALID,25.0663,VALID,291,VALID,0,
2009-02-08, 01:29:04,VALID,1003.58,VALID,0,VALID,89.4791,VALID,0,VALID,25.0274,VALID,291,VALID,0.144922,
2009-02-08, 01:30:04,VALID,1003.54,VALID,0,VALID,89.6927,VALID,0,VALID,24.9885,VALID,291,VALID,0.0167969,
2009-02-08, 01:31:04,VALID,1003.55,VALID,0,VALID,89.914,VALID,0,VALID,24.9495,VALID,291,VALID,0,
2009-02-08, 01:32:04,VALID,1003.53,VALID,0,VALID,90.0589,VALID,0,VALID,24.8892,VALID,291,VALID,0,
2009-02-08, 01:33:04,VALID,1003.52,VALID,0,VALID,90.242,VALID,0,VALID,24.8911,VALID,291,VALID,0,
2009-02-08, 01:34:04,VALID,1003.52,VALID,0,VALID,90.3412,VALID,0,VALID,24.8735,VALID,291,VALID,0,
2009-02-08, 01:35:04,VALID,1003.52,VALID,0,VALID,90.4175,VALID,0,VALID,24.8113,VALID,291,VALID,0,
2009-02-08, 01:36:04,VALID,1003.49,VALID,0,VALID,90.5853,VALID,0,VALID,24.7937,VALID,291,VALID,0.00195313,
2009-02-08, 01:37:04,VALID,1003.48,VALID,0,VALID,90.7074,VALID,0,VALID,24.7529,VALID,291,VALID,0.237109,
2009-02-08, 01:38:04,VALID,1003.47,VALID,0,VALID,90.8523,VALID,0,VALID,24.7353,VALID,291,VALID,0.178906,
2009-02-08, 01:39:04,VALID,1003.46,VALID,0,VALID,91.0278,VALID,0,VALID,24.7159,VALID,291,VALID,0.103906,
2009-02-08, 01:40:04,VALID,1003.44,VALID,0,VALID,91.1728,VALID,0,VALID,24.6964,VALID,291,VALID,0,
2009-02-08, 01:41:04,VALID,1003.43,VALID,0,VALID,91.3101,VALID,0,VALID,24.6574,VALID,291,VALID,0,
2009-02-08, 01:42:04,VALID,1003.45,VALID,0,VALID,91.4474,VALID,0,VALID,24.599,VALID,291,VALID,0,
2009-02-08, 01:43:04,VALID,1003.39,VALID,0,VALID,91.6152,VALID,0,VALID,24.5796,VALID,291,VALID,0,
2009-02-08, 01:44:04,VALID,1003.37,VALID,0,VALID,91.722,VALID,0.100563,VALID,24.5601,VALID,291,VALID,0,
2009-02-08, 01:45:04,VALID,1003.37,VALID,0,VALID,91.8288,VALID,0,VALID,24.5406,VALID,291,VALID,0,
2009-02-08, 01:46:04,VALID,1003.34,VALID,0,VALID,91.9204,VALID,0,VALID,24.5406,VALID,291,VALID,0,
2009-02-08, 01:47:04,VALID,1003.33,VALID,0,VALID,91.9433,VALID,0,VALID,24.5017,VALID,291,VALID,0,
2009-02-08, 01:48:04,VALID,1003.32,VALID,0,VALID,92.0577,VALID,0,VALID,24.5017,VALID,291,VALID,0,
2009-02-08, 01:49:04,VALID,1003.29,VALID,0,VALID,92.0806,VALID,0.100563,VALID,24.4822,VALID,291,VALID,0,
2009-02-08, 01:50:04,VALID,1003.26,VALID,0,VALID,92.0806,VALID,0,VALID,24.4628,VALID,291,VALID,0,
2009-02-08, 01:51:04,VALID,1003.24,VALID,0,VALID,92.1492,VALID,0,VALID,24.4433,VALID,291,VALID,0,
2009-02-08, 01:52:04,VALID,1003.24,VALID,0,VALID,92.2255,VALID,0,VALID,24.4646,VALID,291,VALID,0,
2009-02-08, 01:53:04,VALID,1003.22,VALID,0,VALID,92.2942,VALID,0,VALID,24.4433,VALID,291,VALID,0,
2009-02-08, 01:54:04,VALID,1003.23,VALID,0,VALID,92.2942,VALID,0,VALID,24.4628,VALID,291,VALID,0,
2009-02-08, 01:55:04,VALID,1003.18,VALID,0,VALID,92.2866,VALID,0,VALID,24.4451,VALID,291,VALID,0,
2009-02-08, 01:56:04,VALID,1003.16,VALID,0,VALID,92.2637,VALID,0,VALID,24.4043,VALID,291,VALID,0,
2009-02-08, 01:57:04,VALID,1003.17,VALID,0,VALID,92.3018,VALID,0,VALID,24.3849,VALID,291,VALID,0,
2009-02-08, 01:58:04,VALID,1003.16,VALID,0,VALID,92.34,VALID,0,VALID,24.3459,VALID,291,VALID,0.160547,
2009-02-08, 01:59:04,VALID,1003.16,VALID,0,VALID,92.4163,VALID,0,VALID,24.3265,VALID,291,VALID,0.333594,
2009-02-08, 02:00:04,VALID,1003.12,VALID,0,VALID,92.4925,VALID,0,VALID,24.2875,VALID,291,VALID,0.308203,
2009-02-08, 02:01:04,VALID,1003.09,VALID,0,VALID,92.5993,VALID,0,VALID,24.3088,VALID,291,VALID,0.369531,
2009-02-08, 02:02:04,VALID,1003.04,VALID,0,VALID,92.7138,VALID,0,VALID,24.2681,VALID,291,VALID,0.418359,
2009-02-08, 02:03:04,VALID,1003.07,VALID,0,VALID,92.813,VALID,0,VALID,24.2681,VALID,292,VALID,0.423828,
2009-02-08, 02:04:04,VALID,1003.06,VALID,0,VALID,92.8511,VALID,0,VALID,24.2468,VALID,315,VALID,0.494922,
2009-02-08, 02:05:04,VALID,1003.04,VALID,0,VALID,92.9045,VALID,0,VALID,24.2681,VALID,324,VALID,0.430078,
2009-02-08, 02:06:04,VALID,1003.03,VALID,0,VALID,92.9426,VALID,0,VALID,24.2894,VALID,322,VALID,0.229687,
2009-02-08, 02:07:04,VALID,1003.01,VALID,0,VALID,92.9732,VALID,0,VALID,24.2875,VALID,322,VALID,0,
2009-02-08, 02:08:04,VALID,1003,VALID,0,VALID,92.9808,VALID,0,VALID,24.2875,VALID,322,VALID,0,
2009-02-08, 02:09:05,VALID,1002.99,VALID,0,VALID,93.0113,VALID,0,VALID,24.307,VALID,322,VALID,0.15625,
2009-02-08, 02:10:05,VALID,1002.96,VALID,0,VALID,92.9808,VALID,0,VALID,24.3265,VALID,322,VALID,0,
2009-02-08, 02:11:05,VALID,1002.95,VALID,0,VALID,92.9884,VALID,0,VALID,24.3459,VALID,322,VALID,0.065625,
2009-02-08, 02:12:05,VALID,1002.92,VALID,0,VALID,92.9579,VALID,0,VALID,24.4043,VALID,339,VALID,0.373047,
2009-02-08, 02:13:05,VALID,1002.93,VALID,0,VALID,92.8816,VALID,0.100563,VALID,24.4433,VALID,339,VALID,0.230859,
2009-02-08, 02:14:05,VALID,1002.92,VALID,0,VALID,92.7443,VALID,0,VALID,24.4628,VALID,339,VALID,0.0960938,
2009-02-08, 02:15:05,VALID,1002.91,VALID,0,VALID,92.6604,VALID,0,VALID,24.4414,VALID,339,VALID,0.291016,
2009-02-08, 02:16:05,VALID,1002.88,VALID,0,VALID,92.6299,VALID,0,VALID,24.4628,VALID,339,VALID,0.185937,
2009-02-08, 02:17:05,VALID,1002.89,VALID,0,VALID,92.5231,VALID,0,VALID,24.4433,VALID,339,VALID,0.191406,
2009-02-08, 02:18:05,VALID,1002.88,VALID,0,VALID,92.4773,VALID,0,VALID,24.4238,VALID,339,VALID,0,
2009-02-08, 02:19:05,VALID,1002.85,VALID,0,VALID,92.5231,VALID,0,VALID,24.4043,VALID,339,VALID,0,
2009-02-08, 02:20:05,VALID,1002.84,VALID,0,VALID,92.5841,VALID,0,VALID,24.3654,VALID,339,VALID,0.355859,
2009-02-08, 02:21:05,VALID,1002.8,VALID,0,VALID,92.6222,VALID,0,VALID,24.3654,VALID,339,VALID,0.396094,
2009-02-08, 02:22:05,VALID,1002.79,VALID,0,VALID,92.6909,VALID,0,VALID,24.3654,VALID,339,VALID,0.400781,
2009-02-08, 02:23:05,VALID,1002.76,VALID,0,VALID,92.7367,VALID,0,VALID,24.3459,VALID,339,VALID,0,
2009-02-08, 02:24:05,VALID,1002.77,VALID,0,VALID,92.7596,VALID,0,VALID,24.3459,VALID,339,VALID,0,
2009-02-08, 02:25:05,VALID,1002.73,VALID,0,VALID,92.7748,VALID,0,VALID,24.3849,VALID,339,VALID,0,
2009-02-08, 02:26:05,VALID,1002.69,VALID,0,VALID,92.8053,VALID,0,VALID,24.3265,VALID,339,VALID,0,
2009-02-08, 02:27:05,VALID,1002.69,VALID,0,VALID,92.7519,VALID,0,VALID,24.3265,VALID,339,VALID,0.214062,
2009-02-08, 02:28:05,VALID,1002.65,VALID,0,VALID,92.6833,VALID,0,VALID,24.3265,VALID,339,VALID,0.165625,
2009-02-08, 02:29:05,VALID,1002.65,VALID,0,VALID,92.6299,VALID,0,VALID,24.307,VALID,339,VALID,0.258594,
2009-02-08, 02:30:05,VALID,1002.58,VALID,0,VALID,92.5917,VALID,0,VALID,24.307,VALID,339,VALID,0.3625,
2009-02-08, 02:31:05,VALID,1002.56,VALID,0,VALID,92.5154,VALID,0,VALID,24.2681,VALID,339,VALID,0.479297,
2009-02-08, 02:32:05,VALID,1002.58,VALID,0,VALID,92.4544,VALID,0,VALID,24.2681,VALID,339,VALID,0.457812,
2009-02-08, 02:33:05,VALID,1002.56,VALID,0,VALID,92.4544,VALID,0,VALID,24.2291,VALID,339,VALID,0,
2009-02-08, 02:34:05,VALID,1002.55,VALID,0,VALID,92.4163,VALID,0,VALID,24.2078,VALID,339,VALID,0.0519531,
2009-02-08, 02:35:05,VALID,1002.56,VALID,0,VALID,92.3018,VALID,0,VALID,24.2097,VALID,336,VALID,0.3,
2009-02-08, 02:36:05,VALID,1002.53,VALID,0,VALID,92.1187,VALID,0,VALID,24.2291,VALID,4,VALID,0.739062,
2009-02-08, 02:37:05,VALID,1002.53,VALID,0,VALID,91.9051,VALID,0,VALID,24.2273,VALID,2,VALID,0.139453,
2009-02-08, 02:38:05,VALID,1002.54,VALID,0,VALID,91.5313,VALID,0,VALID,24.2486,VALID,355,VALID,0.388281,
2009-02-08, 02:39:05,VALID,1002.54,VALID,0,VALID,91.2414,VALID,0,VALID,24.2857,VALID,355,VALID,0.210156,
2009-02-08, 02:40:05,VALID,1002.52,VALID,0,VALID,91.1041,VALID,0,VALID,24.307,VALID,355,VALID,0.265625,
2009-02-08, 02:41:05,VALID,1002.49,VALID,0,VALID,90.8829,VALID,0,VALID,24.3478,VALID,355,VALID,0.313281,
2009-02-08, 02:42:05,VALID,1002.49,VALID,0,VALID,90.7989,VALID,0,VALID,24.3459,VALID,355,VALID,0.284766,
2009-02-08, 02:43:05,VALID,1002.47,VALID,0,VALID,90.6158,VALID,0,VALID,24.3673,VALID,350,VALID,0.229687,
2009-02-08, 02:44:05,VALID,1002.48,VALID,0,VALID,90.4938,VALID,0,VALID,24.3459,VALID,350,VALID,0.384375,
2009-02-08, 02:45:05,VALID,1002.47,VALID,0,VALID,90.3031,VALID,0,VALID,24.3478,VALID,350,VALID,0.31875,
2009-02-08, 02:46:05,VALID,1002.45,VALID,0,VALID,90.181,VALID,0,VALID,24.3265,VALID,350,VALID,0.297266,
2009-02-08, 02:47:05,VALID,1002.44,VALID,0,VALID,89.7996,VALID,0,VALID,24.3673,VALID,350,VALID,0.455469,
2009-02-08, 02:48:05,VALID,1002.43,VALID,0,VALID,89.4639,VALID,0,VALID,24.3849,VALID,350,VALID,0.358203,
2009-02-08, 02:49:05,VALID,1002.43,VALID,0,VALID,88.968,VALID,0,VALID,24.4238,VALID,345,VALID,0.561719,
2009-02-08, 02:50:05,VALID,1002.46,VALID,0,VALID,88.6705,VALID,0,VALID,24.4628,VALID,348,VALID,0.367188,
2009-02-08, 02:51:05,VALID,1002.44,VALID,0,VALID,88.2509,VALID,0,VALID,24.5406,VALID,358,VALID,0.394141,
2009-02-08, 02:52:05,VALID,1002.45,VALID,0,VALID,87.7932,VALID,0,VALID,24.5796,VALID,353,VALID,0.842188,
2009-02-08, 02:53:05,VALID,1002.44,VALID,0,VALID,87.3202,VALID,0,VALID,24.6769,VALID,356,VALID,0.669141,
2009-02-08, 02:54:05,VALID,1002.43,VALID,0,VALID,86.9006,VALID,0,VALID,24.7761,VALID,352,VALID,0.722656,
2009-02-08, 02:55:05,VALID,1002.45,VALID,0,VALID,86.7327,VALID,0,VALID,24.8327,VALID,1,VALID,0.457812,
2009-02-08, 02:56:05,VALID,1002.46,VALID,0,VALID,86.4505,VALID,0,VALID,24.8327,VALID,1,VALID,0.445313,
2009-02-08, 02:57:05,VALID,1002.43,VALID,0,VALID,86.3437,VALID,0,VALID,24.8522,VALID,357,VALID,0.634375,
2009-02-08, 02:58:05,VALID,1002.46,VALID,0,VALID,86.2674,VALID,0,VALID,24.8522,VALID,349,VALID,0.776563,
2009-02-08, 02:59:05,VALID,1002.45,VALID,0,VALID,86.1911,VALID,0,VALID,24.893,VALID,347,VALID,0.599219,
2009-02-08, 03:00:05,VALID,1002.44,VALID,0,VALID,86.0156,VALID,0,VALID,24.893,VALID,337,VALID,0.438281,
2009-02-08, 03:01:05,VALID,1002.45,VALID,0,VALID,86.0233,VALID,0,VALID,24.8911,VALID,338,VALID,0.514844,
2009-02-08, 03:02:05,VALID,1002.43,VALID,0,VALID,86.0843,VALID,0,VALID,24.9125,VALID,338,VALID,0.436719,
2009-02-08, 03:03:05,VALID,1002.42,VALID,0,VALID,86.0461,VALID,0,VALID,24.8911,VALID,336,VALID,0.557813,
2009-02-08, 03:04:05,VALID,1002.43,VALID,0,VALID,85.9927,VALID,0,VALID,24.9125,VALID,339,VALID,0.483984,
2009-02-08, 03:05:05,VALID,1002.44,VALID,0,VALID,86.0767,VALID,0,VALID,24.9319,VALID,350,VALID,0.596094,
2009-02-08, 03:06:05,VALID,1002.42,VALID,0,VALID,86.1453,VALID,0,VALID,24.9125,VALID,349,VALID,0.706641,
2009-02-08, 03:07:05,VALID,1002.42,VALID,0,VALID,86.1682,VALID,0,VALID,24.8911,VALID,335,VALID,0.461328,
2009-02-08, 03:08:05,VALID,1002.42,VALID,0,VALID,86.1453,VALID,0,VALID,24.9125,VALID,345,VALID,0.618359,
2009-02-08, 03:09:05,VALID,1002.42,VALID,0,VALID,86.1453,VALID,0,VALID,24.9106,VALID,346,VALID,0.43125,
2009-02-08, 03:10:05,VALID,1002.44,VALID,0,VALID,86.2445,VALID,0,VALID,24.9106,VALID,349,VALID,0.464844,
2009-02-08, 03:11:05,VALID,1002.46,VALID,0,VALID,86.2064,VALID,0,VALID,24.93,VALID,347,VALID,0.447656,
2009-02-08, 03:12:05,VALID,1002.44,VALID,0,VALID,86.336,VALID,0,VALID,24.9106,VALID,337,VALID,0.423828,
2009-02-08, 03:13:05,VALID,1002.43,VALID,0,VALID,86.3208,VALID,0,VALID,24.9106,VALID,337,VALID,0.383203,
2009-02-08, 03:14:05,VALID,1002.41,VALID,0,VALID,86.4123,VALID,0,VALID,24.9106,VALID,338,VALID,0.433594,
2009-02-08, 03:15:05,VALID,1002.38,VALID,0,VALID,86.5039,VALID,0,VALID,24.8892,VALID,338,VALID,0.298047,
2009-02-08, 03:16:05,VALID,1002.37,VALID,0,VALID,86.4581,VALID,0,VALID,24.8911,VALID,338,VALID,0.350781,
2009-02-08, 03:17:05,VALID,1002.39,VALID,0,VALID,87.0074,VALID,0.100563,VALID,24.8503,VALID,338,VALID,0.298047,
2009-02-08, 03:18:05,VALID,1002.36,VALID,0,VALID,86.8243,VALID,0.100563,VALID,24.7937,VALID,338,VALID,0.379687,
2009-02-08, 03:19:05,VALID,1002.36,VALID,0,VALID,87.1066,VALID,0.100563,VALID,24.7743,VALID,338,VALID,0.265234,
2009-02-08, 03:20:05,VALID,1002.35,VALID,0,VALID,87.1752,VALID,0,VALID,24.714,VALID,338,VALID,0.275781,
2009-02-08, 03:21:05,VALID,1002.34,VALID,0,VALID,87.2286,VALID,0,VALID,24.7159,VALID,338,VALID,0.349219,
2009-02-08, 03:22:05,VALID,1002.34,VALID,0,VALID,87.3202,VALID,0,VALID,24.6964,VALID,338,VALID,0.372656,
2009-02-08, 03:23:05,VALID,1002.33,VALID,0,VALID,87.1752,VALID,0,VALID,24.6964,VALID,338,VALID,0.357422,
2009-02-08, 03:24:05,VALID,1002.33,VALID,0,VALID,86.954,VALID,0,VALID,24.7353,VALID,338,VALID,0.231641,
2009-02-08, 03:25:05,VALID,1002.33,VALID,0,VALID,86.8624,VALID,0,VALID,24.7335,VALID,338,VALID,0.501953,
2009-02-08, 03:26:05,VALID,1002.36,VALID,0,VALID,86.9006,VALID,0.100563,VALID,24.7724,VALID,350,VALID,0.687109,
2009-02-08, 03:27:05,VALID,1002.34,VALID,0,VALID,86.9311,VALID,0,VALID,24.8308,VALID,351,VALID,0.296094,
2009-02-08, 03:28:05,VALID,1002.33,VALID,0,VALID,86.8319,VALID,0.100563,VALID,24.8911,VALID,350,VALID,0.553906,
2009-02-08, 03:29:05,VALID,1002.32,VALID,0,VALID,86.8167,VALID,0,VALID,24.8892,VALID,352,VALID,0.463281,
2009-02-08, 03:30:05,VALID,1002.31,VALID,0,VALID,86.7175,VALID,0,VALID,24.93,VALID,337,VALID,0.457812,
2009-02-08, 03:31:05,VALID,1002.28,VALID,0,VALID,86.8472,VALID,0.100563,VALID,24.9476,VALID,351,VALID,0.507422,
2009-02-08, 03:32:05,VALID,1002.27,VALID,0,VALID,86.8014,VALID,0.100563,VALID,24.9495,VALID,352,VALID,0.658984,
2009-02-08, 03:33:05,VALID,1002.28,VALID,0,VALID,86.9692,VALID,0,VALID,24.93,VALID,352,VALID,0.464453,
2009-02-08, 03:34:05,VALID,1002.27,VALID,0,VALID,87.0455,VALID,0,VALID,24.8892,VALID,352,VALID,0.426172,
2009-02-08, 03:35:05,VALID,1002.26,VALID,0,VALID,86.9921,VALID,0,VALID,24.8892,VALID,352,VALID,0.450781,
2009-02-08, 03:36:05,VALID,1002.26,VALID,0,VALID,87.0913,VALID,0,VALID,24.8892,VALID,354,VALID,0.571484,
2009-02-08, 03:37:05,VALID,1002.25,VALID,0,VALID,87.2439,VALID,0.100563,VALID,24.9087,VALID,354,VALID,0.522266,
2009-02-08, 03:38:05,VALID,1002.24,VALID,0,VALID,87.4041,VALID,0.100563,VALID,24.9106,VALID,354,VALID,0.385547,
2009-02-08, 03:39:05,VALID,1002.25,VALID,0,VALID,87.6177,VALID,0.100563,VALID,24.8716,VALID,354,VALID,0.269531,
2009-02-08, 03:40:05,VALID,1002.25,VALID,0,VALID,87.9,VALID,0.100563,VALID,24.7919,VALID,354,VALID,0.416406,
2009-02-08, 03:41:05,VALID,1002.27,VALID,0,VALID,88.2356,VALID,0,VALID,24.7548,VALID,354,VALID,0.307031,
2009-02-08, 03:42:05,VALID,1002.27,VALID,0,VALID,88.495,VALID,0,VALID,24.6769,VALID,354,VALID,0.388281,
2009-02-08, 03:43:05,VALID,1002.31,VALID,0,VALID,88.7849,VALID,0,VALID,24.6166,VALID,354,VALID,0.14375,
2009-02-08, 03:44:05,VALID,1002.28,VALID,0,VALID,88.9451,VALID,0,VALID,24.5582,VALID,354,VALID,0.277734,
2009-02-08, 03:45:05,VALID,1002.28,VALID,0,VALID,89.1664,VALID,0,VALID,24.5193,VALID,354,VALID,0.116406,
2009-02-08, 03:46:05,VALID,1002.3,VALID,0,VALID,89.3418,VALID,0.100563,VALID,24.4804,VALID,354,VALID,0.282031,